Location: Malcolm X Square
(37.7810°N, 122.4297°W)
Time: 23:32:59
(UTC+00:00)

Cosmos 1048 Rocket - Pass Details

Date: 13 April 2024
Orbit: 742 x 788 km, 74.0° (Epoch: 21 May)

Event Time Altitude Azimuth Distance (km) Brightness Sun altitude
Rises 12:37:09 0° 194° (SSW) 3,262 6.9 -12.0°
Reaches altitude 10° 12:39:32 10° 193° (SSW) 2,334 6.2 -11.6°
Maximum altitude 12:44:51 82° 107° (ESE) 791 4.1 -10.6°
Drops below altitude 10° 12:50:09 10° 20° (NNE) 2,325 7.1 -9.6°
Sets 12:52:31 0° 20° (NNE) 3,249 7.9 -9.2°
